{"data":{"norad_id":53059,"epoch":"2026-09-18T22:16:04.276128Z","epoch_age_seconds":205275,"freshness":"STALE","line1":"1 53059U 22077S   26261.92782727 -.00008144  00000+0 -24957-3 0  9999","line2":"2 53059  97.2837  76.8071 0003523 120.7579 239.4011 15.33518845230056","mean_motion":15.33518845,"eccentricity":0.0003523,"inclination_deg":97.2837,"raan_deg":76.8071,"arg_perigee_deg":120.7579,"mean_anomaly_deg":239.4011,"bstar":-0.00024957,"rev_number":23005,"period_min":93.901682701526,"perigee_km":462.9125214047,"apogee_km":467.73442365365,"semimajor_km":6843.4604725292,"source":"CELESTRAK","updated_at":"2026-09-20T09:00:40.153087Z"}}